Manchester, NH

9:09 AM EDT on September 19, 2017 (GMT -0400)
Manchester

Weather History for KMHT - December, 2013

Change the Weather History Date:

Thursday, December 19, 2013

  Actual Average Record
Temperature  
Mean Temperature 33 °F 29 °F  
Max Temperature 39 °F 37 °F 54 °F (1954)
Min Temperature 27 °F 21 °F -7 °F (1971)
Degree Days  
Heating Degree Days 32 36  
Month to date heating degree days 621  
Since 1 July heating degree days 1915  
Cooling Degree Days 0 0  
Month to date cooling degree days 0  
Year to date cooling degree days 642  
Moisture  
Dew Point 21 °F    
Average Humidity 64    
Maximum Humidity 72    
Minimum Humidity 47    
Precipitation  
Precipitation 0.00 in 0.10 in 2.23 in (1986)
Month to date precipitation 2.03  
Year to date precipitation 43.33  
Snow  
Snow 0.00 in - - ()
Month to date snowfall  
Since 1 July snowfall  
Snow Depth 12.00 in    
Sea Level Pressure  
Sea Level Pressure 30.06 in    
Wind  
Wind Speed 7 mph (SSW)    
Max Wind Speed 10 mph    
Max Gust Speed -    
Visibility 10 miles    
Events Snow    
T = Trace of Precipitation, MM = Missing Value Source: NWS Daily Summary

Daily Weather History Graph

Daily Weather History Graph

Search for Another Location

Airport or City:

Trip Planner

Search our weather history database for the weather conditions in past years. The results will help you decide how hot, cold, wet, or windy it might be!

Date:

Astronomy

Dec. 19, 2013 Rise Set
Actual Time 7:12 AM EST 4:13 PM EST
Civil Twilight 6:40 AM EST 4:45 PM EST
Nautical Twilight 6:04 AM EST 5:21 PM EST
Astronomical Twilight 5:29 AM EST 5:56 PM EST
Moon 6:39 PM EST 8:26 AM EST
Length of Visible Light 10h 05m
Length of Day
9h 00m
Waning Gibbous, 95% of the Moon is Illuminated
Dec 19
Waning Gibbous
Dec 25
Last Quarter
Jan 1
New
Jan 7
First Quarter
Jan 15
Full

Hourly Weather History & Observations

Time (EST) Temp. Windchill Dew Point Humidity Pressure Visibility Wind Dir Wind Speed Gust Speed Precip Events Conditions
12:53 AM 28.0 °F 20.0 °F 18.0 °F 66% 30.07 in 10.0 mi SSW 8.1 mph - N/A   Overcast
1:53 AM 27.0 °F 18.0 °F 19.0 °F 72% 30.09 in 10.0 mi SSW 9.2 mph - N/A   Overcast
2:53 AM 28.0 °F 19.3 °F 19.0 °F 69% 30.09 in 10.0 mi SSW 9.2 mph - N/A   Overcast
3:53 AM 28.0 °F 20.0 °F 19.9 °F 72% 30.08 in 10.0 mi SSW 8.1 mph - N/A   Overcast
4:53 AM 28.0 °F 20.0 °F 19.9 °F 72% 30.09 in 10.0 mi South 8.1 mph - N/A   Scattered Clouds
5:53 AM 28.0 °F 24.2 °F 19.9 °F 72% 30.09 in 10.0 mi Variable 3.5 mph - N/A   Overcast
6:53 AM 28.0 °F 22.8 °F 19.9 °F 72% 30.07 in 10.0 mi South 4.6 mph - N/A   Overcast
7:53 AM 28.9 °F 21.9 °F 19.9 °F 69% 30.06 in 10.0 mi South 6.9 mph - N/A   Mostly Cloudy
8:53 AM 28.9 °F 21.1 °F 19.9 °F 69% 30.05 in 9.0 mi South 8.1 mph - 0.00 in Snow Light Snow
9:53 AM 30.0 °F 22.4 °F 19.9 °F 66% 30.06 in 10.0 mi SSW 8.1 mph - 0.00 in Snow Light Snow
10:53 AM 33.1 °F 28.7 °F 19.9 °F 59% 30.04 in 10.0 mi SW 4.6 mph - 0.00 in   Partly Cloudy
11:53 AM 36.0 °F 28.5 °F 19.0 °F 50% 30.00 in 10.0 mi WSW 10.4 mph - N/A   Mostly Cloudy
12:53 PM 37.9 °F 31.5 °F 19.9 °F 48% 29.99 in 10.0 mi SW 9.2 mph - N/A   Partly Cloudy
1:53 PM 39.0 °F 32.8 °F 21.0 °F 49% 29.98 in 10.0 mi WSW 9.2 mph - N/A   Partly Cloudy
2:53 PM 39.9 °F 35.1 °F 21.0 °F 47% 29.98 in 10.0 mi SW 6.9 mph - N/A   Partly Cloudy
3:53 PM 37.0 °F 34.5 °F 21.9 °F 54% 30.01 in 10.0 mi SSE 3.5 mph - N/A   Scattered Clouds
4:53 PM 35.1 °F 32.2 °F 21.9 °F 59% 30.02 in 10.0 mi SSW 3.5 mph - N/A   Scattered Clouds
5:53 PM 35.1 °F 31.0 °F 21.9 °F 59% 30.04 in 10.0 mi SW 4.6 mph - N/A   Clear
6:53 PM 30.9 °F 27.5 °F 21.9 °F 69% 30.06 in 10.0 mi SSW 3.5 mph - N/A   Clear
7:53 PM 30.9 °F 27.5 °F 21.0 °F 67% 30.09 in 10.0 mi South 3.5 mph - N/A   Mostly Cloudy
8:53 PM 30.9 °F 26.2 °F 21.9 °F 69% 30.11 in 10.0 mi SSW 4.6 mph - N/A   Mostly Cloudy
9:53 PM 30.9 °F - 21.9 °F 69% 30.12 in 10.0 mi Calm Calm - N/A   Mostly Cloudy
10:53 PM 30.0 °F 26.5 °F 21.9 °F 72% 30.12 in 10.0 mi SSE 3.5 mph - N/A   Clear
11:53 PM 30.9 °F - 23.0 °F 72% 30.13 in 10.0 mi Calm Calm - N/A   Clear